"2009-05-05 00:00:30",858560,5.929,300.5,1.637,0.207,13.61,105.9425,14.49,15.46,26.23,0,110.6,13.26,15.29,262.5
"2009-05-05 00:01:00",858561,5.501,297.4,2.008,0.372,13.75,105.9386,14.48,15.47,26.5,0,110.6,13.26,15.28,259.4
"2009-05-05 00:01:30",858562,4.945,298.4,4.271,0.184,13.73,105.9321,14.46,15.46,26.69,0,110.6,13.26,15.26,260.4
"2009-05-05 00:02:00",858563,5.68,299,3.729,0.245,13.79,105.9209,14.43,15.45,27.09,0,110.6,13.26,15.23,261.0
"2009-05-05 00:02:30",858564,4.99,308.3,3.672,0.287,13.77,105.9116,14.41,15.45,27.33,0,110.6,13.26,15.21,270.3
"2009-05-05 00:03:00",858565,5.63,308.8,4.515,0.346,13.92,105.9099,14.4,15.43,27.8,0,110.6,13.26,15.20,270.8
"2009-05-05 00:03:30",858566,6.452,308.3,6.324,0.341,13.82,105.8933,14.36,15.39,28.21,0,110.6,13.26,15.16,270.3
"2009-05-05 00:04:00",858567,6.006,302.3,1.289,0.32,13.89,105.8891,14.35,15.36,27.99,0,110.6,13.26,15.15,264.3
"2009-05-05 00:04:30",858568,6.322,301.2,7.029,1.088,15.05,105.8826,14.33,15.44,28.21,0,110.6,13.23,15.13,263.2
"2009-05-05 00:05:00",858569,6.913,310.2,4.901,1.212,14.81,105.8764,14.32,15.43,28.28,0,110.6,13.23,15.12,272.2
"2009-05-05 00:05:30",858570,8.43,316.6,8.75,1.289,17.14,105.8764,14.32,15.52,28.56,0,110.6,13.22,15.12,278.6
"2009-05-05 00:06:00",858571,7.792,316.4,5.397,1.46,16.51,105.8764,14.32,15.62,28.64,0,110.6,13.22,15.12,278.4
"2009-05-05 00:06:30",858572,7.402,304.5,8.45,1.44,14.49,105.8727,14.31,15.46,28.59,0,110.6,13.22,15.11,266.5
"2009-05-05 00:07:00",858573,7.739,301,6.46,1.136,14.28,105.8553,14.26,15.49,29.14,0,110.6,13.22,15.06,263.0
"2009-05-05 00:07:30",858574,7.433,301.3,3.151,0.41,11.93,105.8426,14.23,15.31,28.58,0,110.6,13.26,15.03,263.3
"2009-05-05 00:08:00",858575,6.921,301.4,2.774,0.668,12.07,105.8423,14.23,15.3,28.15,0,110.6,13.26,15.03,263.4
"2009-05-05 00:08:30",858576,6.606,302.6,2.671,0.361,12.45,105.8283,14.19,15.27,28.55,0,110.6,13.26,14.99,264.6
"2009-05-05 00:09:00",858577,7.278,307.1,1.246,0.206,12.79,105.8102,14.15,15.25,27.94,0,110.6,13.26,14.95,269.1
"2009-05-05 00:09:30",858578,6.979,309.7,1.251,0.16,13.08,105.8086,14.14,15.23,27.59,0,110.6,13.26,14.94,271.7
"2009-05-05 00:10:00",858579,7.91,315.4,6.507,1.36,14.99,105.7908,14.1,15.25,27.57,0,110.6,13.23,14.90,277.4
"2009-05-05 00:10:30",858580,8.38,317.7,6.838,1.206,15.21,105.7757,14.06,15.36,27.66,0,110.6,13.23,14.86,279.7
"2009-05-05 00:11:00",858581,9.55,321,5.847,1.307,16.11,105.7732,14.05,15.32,28.11,0,110.6,13.22,14.85,283.0
"2009-05-05 00:11:30",858582,9.59,320.4,7.609,1.23,16.81,105.7556,14.01,15.41,28.16,0,110.6,13.22,14.81,282.4
"2009-05-05 00:12:00",858583,7.853,314.8,4.327,0.821,12.95,105.749,13.99,15.15,27.34,0,110.6,13.22,14.79,276.8
"2009-05-05 00:12:30",858584,8.25,318.9,5.861,1.24,14.32,105.7413,13.97,15.27,27.53,0,110.6,13.22,14.77,280.9
"2009-05-05 00:13:00",858585,7.132,313.8,5.095,1.048,12.64,105.7232,13.92,15.15,27.62,0,110.6,13.22,14.72,275.8
"2009-05-05 00:13:30",858586,6.859,315.2,3.122,0.228,12.34,105.7263,13.93,15.09,27.84,0,110.6,13.26,14.73,277.2
"2009-05-05 00:14:00",858587,6.572,319.4,2.642,0.391,12.48,105.7257,13.93,15.02,28.44,0,110.6,13.26,14.73,281.4
"2009-05-05 00:14:30",858588,6.985,320.3,2.83,0.224,12.72,105.7164,13.91,15,27.97,0,110.6,13.26,14.71,282.3
"2009-05-05 00:15:00",858589,6.649,315.8,1.84,0.139,12.99,105.708,13.88,14.99,27.93,0,110.6,13.26,14.69,277.8
"2009-05-05 00:15:30",858590,6.574,315.9,2.457,0.159,13.25,105.7092,13.89,14.96,28.08,0,110.6,13.26,14.69,277.9
"2009-05-05 00:16:00",858591,6.963,315.3,5.015,0.857,14.71,105.7095,13.89,15.1,28.32,0,110.6,13.23,14.69,277.3
"2009-05-05 00:16:30",858592,6.387,312.1,5.524,1.148,14.14,105.7095,13.89,14.99,28.39,0,110.6,13.23,14.69,274.1
"2009-05-05 00:17:00",858593,5.456,313.1,1.442,0.191,13.24,105.7095,13.89,14.94,28.46,0,110.6,13.27,14.69,275.1
"2009-05-05 00:17:30",858594,6.948,319.6,7.279,1.373,16.32,105.7058,13.88,15.21,28.64,0,110.6,13.23,14.68,281.6
"2009-05-05 00:18:00",858595,6.717,316.9,7.554,1.269,15.77,105.6962,13.85,15.14,28.56,0,110.6,13.23,14.66,278.9
"2009-05-05 00:18:30",858596,5.511,310.9,4.473,0.859,12.91,105.6816,13.82,14.91,28.47,0,110.6,13.23,14.62,272.9
"2009-05-05 00:19:00",858597,5.577,309.4,1.363,0.165,12.24,105.6759,13.8,14.89,28.6,0,110.6,13.27,14.60,271.4
"2009-05-05 00:19:30",858598,6.718,319.5,8.74,1.333,14.82,105.6757,13.8,15.06,28.48,0,110.6,13.23,14.60,281.5
"2009-05-05 00:20:00",858599,5.633,318.6,1.849,0.16,12.51,105.6757,13.8,14.94,28.2,0,110.6,13.23,14.60,280.6
"2009-05-05 00:20:30",858600,5.974,314.6,4.519,0.34,12.58,105.6757,13.8,14.88,28.05,0,110.6,13.27,14.60,276.6
"2009-05-05 00:21:00",858601,6.114,313.7,1.764,0.325,12.72,105.6757,13.8,14.87,28.22,0,110.5,13.27,14.60,275.7
"2009-05-05 00:21:30",858602,6.763,316.9,2.64,0.482,12.94,105.6757,13.8,14.86,28.17,0,110.6,13.24,14.60,278.9
"2009-05-05 00:22:00",858603,6.612,319.8,6.485,0.731,14.4,105.6757,13.8,14.98,28.28,0,110.5,13.24,14.60,281.8
"2009-05-05 00:22:30",858604,5.958,325.7,7.425,0.864,14,105.6754,13.8,14.88,28.38,0,110.5,13.24,14.60,287.7
"2009-05-05 00:23:00",858605,5.827,322.8,8.3,1.002,13.7,105.6723,13.79,14.87,28.64,0,110.5,13.24,14.59,284.8
"2009-05-05 00:23:30",858606,6.581,321.4,7.99,1.505,15.53,105.67,13.79,15,29,0,110.5,13.24,14.59,283.4
"2009-05-05 00:24:00",858607,6.912,322.1,8.06,1.521,15.16,105.6664,13.78,15.03,28.98,0,110.5,13.24,14.58,284.1
"2009-05-05 00:24:30",858608,5.241,308.6,3.378,0.314,12.75,105.6616,13.77,14.92,28.7,0,110.5,13.28,14.57,270.6
"2009-05-05 00:25:00",858609,4.478,299.5,2.085,0.351,12.37,105.6523,13.74,14.84,28.92,0,110.5,13.28,14.54,261.5
"2009-05-05 00:25:30",858610,5.12,304.7,7.478,1.007,12.74,105.6441,13.72,14.83,28.89,0,110.5,13.24,14.52,266.7
"2009-05-05 00:26:00",858611,5.066,311,3.459,0.576,13.11,105.6437,13.72,14.93,28.55,0,110.5,13.24,14.52,273.0
"2009-05-05 00:26:30",858612,6.107,313.7,7.569,1.496,14.45,105.6466,13.73,14.86,28.33,0,110.5,13.24,14.53,275.7
"2009-05-05 00:27:00",858613,4.362,303.7,2.175,0.115,12.7,105.6487,13.73,14.82,28.37,0,110.5,13.28,14.53,265.7
"2009-05-05 00:27:30",858614,5.217,306,5.291,1.334,13.97,105.6502,13.74,14.82,28.61,0,110.5,13.25,14.54,268.0
"2009-05-05 00:28:00",858615,5.327,300.3,6.412,0.882,13.62,105.6529,13.74,14.95,28.74,0,110.5,13.24,14.54,262.3
"2009-05-05 00:28:30",858616,5.367,299,7.783,1.266,14.2,105.6527,13.74,14.79,28.64,0,110.5,13.24,14.54,261.0
"2009-05-05 00:29:00",858617,5.097,300.7,2.095,0.351,12.82,105.6561,13.75,14.77,28.65,0,110.5,13.27,14.55,262.7
"2009-05-05 00:29:30",858618,5.242,300.1,6.74,0.999,13.99,105.6451,13.72,14.93,28.6,0,110.5,13.24,14.52,262.1
"2009-05-05 00:30:00",858619,6.078,310.4,6.257,1.591,14.84,105.6414,13.71,14.8,28.45,0,110.5,13.24,14.51,272.4
"2009-05-05 00:30:30",858620,5.592,310.8,5.985,1.345,15.06,105.6432,13.72,14.94,28.8,0,110.5,13.24,14.52,272.8
"2009-05-05 00:31:00",858621,4.49,307,4.711,1.001,12.59,105.6426,13.72,14.72,28.77,0,110.5,13.24,14.52,269.0
"2009-05-05 00:31:30",858622,4.176,311.3,5.706,0.381,12.29,105.6438,13.72,14.73,28.69,0,110.5,13.27,14.52,273.3
"2009-05-05 00:32:00",858623,4.777,309.4,5.349,0.101,12.47,105.6438,13.72,14.72,28.55,0,110.5,13.27,14.52,271.4
"2009-05-05 00:32:30",858624,5.76,309,5.726,1.376,14.17,105.6407,13.71,14.73,28.62,0,110.5,13.24,14.51,271.0
"2009-05-05 00:33:00",858625,5.645,320.1,7.434,1.244,15.02,105.628,13.68,14.9,28.79,0,110.5,13.25,14.48,282.1
"2009-05-05 00:33:30",858626,5.26,313.2,4.692,0.773,13.17,105.6201,13.66,14.7,28.68,0,110.5,13.25,14.46,275.2
"2009-05-05 00:34:00",858627,5.833,310.9,8.08,1.193,14.93,105.6153,13.65,14.77,28.89,0,110.5,13.25,14.45,272.9
"2009-05-05 00:34:30",858628,5.988,314.3,5.937,1.326,14.97,105.6106,13.64,14.84,28.95,0,110.5,13.25,14.44,276.3
"2009-05-05 00:35:00",858629,4.531,312.9,3.247,0.189,12.84,105.61,13.63,14.7,28.84,0,110.5,13.29,14.43,274.9
"2009-05-05 00:35:30",858630,5.456,312.2,5.62,1.376,14.58,105.61,13.63,14.74,28.88,0,110.5,13.25,14.43,274.2
"2009-05-05 00:36:00",858631,5.24,309.6,5.189,1.342,15.01,105.61,13.63,14.83,29.23,0,110.5,13.25,14.43,271.6
"2009-05-05 00:36:30",858632,4.141,302.6,3.377,0.791,12.86,105.61,13.63,14.75,28.86,0,110.5,13.25,14.43,264.6
"2009-05-05 00:37:00",858633,4.878,305.9,6.71,1.336,14.98,105.61,13.63,14.78,28.68,0,110.5,13.25,14.43,267.9
"2009-05-05 00:37:30",858634,3.862,303.9,2.022,0.3,12.54,105.61,13.63,14.7,28.54,0,110.5,13.29,14.43,265.9
"2009-05-05 00:38:00",858635,4.024,304,2.212,0.229,12.34,105.6046,13.62,14.67,28.46,0,110.5,13.29,14.42,266.0
"2009-05-05 00:38:30",858636,4.223,306.6,2.737,0.117,12.41,105.5959,13.6,14.67,28.47,0,110.5,13.29,14.40,268.6
"2009-05-05 00:39:00",858637,4.57,313.2,2.089,0.22,12.69,105.5816,13.56,14.65,28.46,0,110.5,13.29,14.36,275.2
"2009-05-05 00:39:30",858638,6.067,316.5,6.153,1.299,15.22,105.5768,13.55,14.8,28.52,0,110.5,13.26,14.35,278.5
"2009-05-05 00:40:00",858639,5.496,311.7,5.431,1.038,14.46,105.5762,13.55,14.83,28.51,0,110.5,13.26,14.35,273.7
"2009-05-05 00:40:30",858640,6.11,307.2,7.529,1.513,14.93,105.5771,13.55,14.78,28.47,0,110.5,13.26,14.35,269.2
"2009-05-05 00:41:00",858641,5.235,301.2,2.708,0.792,12.86,105.5816,13.56,14.69,28.41,0,110.5,13.26,14.36,263.2
"2009-05-05 00:41:30",858642,4.874,312,4.774,0.197,12.55,105.5851,13.57,14.64,28.35,0,110.5,13.3,14.37,274.0
"2009-05-05 00:42:00",858643,6.312,315.9,7.063,1.358,14.01,105.5884,13.58,14.63,28.4,0,110.4,13.26,14.38,277.9
"2009-05-05 00:42:30",858644,5.794,311.6,6.369,1.068,14.94,105.5905,13.58,14.77,28.55,0,110.4,13.26,14.38,273.6
"2009-05-05 00:43:00",858645,5.54,309.8,9.17,1.327,15.22,105.5947,13.59,14.75,28.29,0,110.5,13.26,14.39,271.8
"2009-05-05 00:43:30",858646,5.395,312.7,3.158,0.512,13.07,105.5935,13.59,14.74,28.21,0,110.4,13.26,14.39,274.7
"2009-05-05 00:44:00",858647,6.264,319.8,6.705,1.298,14.13,105.5926,13.59,14.65,28.13,0,110.4,13.26,14.39,281.8
"2009-05-05 00:44:30",858648,5.448,315,3.472,0.191,12.52,105.5962,13.6,14.58,28.13,0,110.4,13.29,14.40,277.0
"2009-05-05 00:45:00",858649,5.122,324.3,3.583,0.103,12.65,105.5941,13.59,14.59,28.48,0,110.4,13.29,14.39,286.3
"2009-05-05 00:45:30",858650,5.765,326.6,2.828,0.23,12.9,105.5851,13.57,14.63,28.97,0,110.4,13.29,14.37,288.6
"2009-05-05 00:46:00",858651,7.013,329.7,6.407,1.312,15.48,105.5798,13.56,14.77,29.29,0,110.4,13.26,14.36,291.7
"2009-05-05 00:46:30",858652,7.175,332.2,7.78,1.394,15.88,105.5784,13.55,14.84,29.14,0,110.4,13.26,14.35,294.2
"2009-05-05 00:47:00",858653,6.878,331.3,8.88,1.272,14.69,105.5781,13.55,14.64,28.8,0,110.4,13.26,14.35,293.3
"2009-05-05 00:47:30",858654,5.536,320,1.595,0.254,12.84,105.5781,13.55,14.66,28.6,0,110.4,13.29,14.35,282.0
"2009-05-05 00:48:00",858655,6.169,327.6,4.569,1.352,14.54,105.5781,13.55,14.63,28.54,0,110.4,13.26,14.35,289.6
"2009-05-05 00:48:30",858656,6.123,331.3,1.841,0.341,12.65,105.5781,13.55,14.66,29.27,0,110.4,13.29,14.35,293.3
"2009-05-05 00:49:00",858657,7.328,338.6,7.324,1.131,14.8,105.5781,13.55,14.76,29.73,0,110.4,13.26,14.35,300.6
"2009-05-05 00:49:30",858658,5.789,333.8,3.062,0.259,12.62,105.5781,13.55,14.6,29.52,0,110.4,13.3,14.35,295.8
"2009-05-05 00:50:00",858659,6.542,337.4,1.71,0.276,12.44,105.5781,13.55,14.58,29.11,0,110.4,13.3,14.35,299.4
"2009-05-05 00:50:30",858660,6.619,333,2.035,0.326,12.49,105.5781,13.55,14.57,29.34,0,110.4,13.3,14.35,295.0
"2009-05-05 00:51:00",858661,6.237,330.6,1.507,0.244,12.75,105.5761,13.55,14.56,29.36,0,110.4,13.3,14.35,292.6
"2009-05-05 00:51:30",858662,7.012,337.1,7.227,1.19,14.84,105.5708,13.53,14.71,29.25,0,110.4,13.27,14.33,299.1
"2009-05-05 00:52:00",858663,7.287,339.1,8.96,1.267,15.83,105.5668,13.52,14.78,29.27,0,110.4,13.27,14.32,301.1
"2009-05-05 00:52:30",858664,6.977,333.3,8.18,1.297,15.21,105.5547,13.49,14.7,29.24,0,110.4,13.27,14.29,295.3
"2009-05-05 00:53:00",858665,7.18,335.6,8.95,1.516,14.64,105.5468,13.47,14.69,29.27,0,110.4,13.27,14.27,297.6
"2009-05-05 00:53:30",858666,6.729,330.4,6.567,0.886,13.61,105.5443,13.47,14.7,29.36,0,110.4,13.27,14.26,292.4
"2009-05-05 00:54:00",858667,5.858,328.5,6.226,1.12,13.42,105.5443,13.47,14.55,29.23,0,110.4,13.27,14.26,290.5
"2009-05-05 00:54:30",858668,7.495,326.2,9.26,1.437,14.17,105.5443,13.47,14.72,29.47,0,110.4,13.27,14.26,288.2
"2009-05-05 00:55:00",858669,7.164,328.1,4.787,1.163,13.29,105.5443,13.47,14.56,29.59,0,110.4,13.27,14.26,290.1
"2009-05-05 00:55:30",858670,6.466,320.1,1.671,0.497,12.46,105.5443,13.47,14.54,29.55,0,110.4,13.31,14.26,282.1
"2009-05-05 00:56:00",858671,8.22,324.9,4.564,0.36,12.7,105.5443,13.47,14.56,29.77,0,110.4,13.31,14.26,286.9
"2009-05-05 00:56:30",858672,9.28,329.4,7.368,1.364,13.98,105.5443,13.47,14.58,30.09,0,110.4,13.27,14.26,291.4
"2009-05-05 00:57:00",858673,10.07,331.4,7.054,1.351,15.68,105.5452,13.47,14.73,30.17,0,110.4,13.27,14.27,293.4
"2009-05-05 00:57:30",858674,8.15,324.7,5.326,1.343,13.58,105.5458,13.47,14.64,29.9,0,110.4,13.27,14.27,286.7
"2009-05-05 00:58:00",858675,10.24,325.5,10.44,1.447,14.75,105.5482,13.48,14.6,29.99,0,110.4,13.27,14.27,287.5
"2009-05-05 00:58:30",858676,8.63,316.6,5.029,1.047,13.47,105.5419,13.46,14.65,29.96,0,110.4,13.27,14.26,278.6
"2009-05-05 00:59:00",858677,7.339,321.5,5.721,0.591,13.09,105.5367,13.45,14.64,29.84,0,110.4,13.31,14.25,283.5
"2009-05-05 00:59:30",858678,7.625,325.5,7.758,1.315,14.41,105.5307,13.43,14.52,29.51,0,110.4,13.27,14.23,287.5
"2009-05-05 01:00:00",858679,6.327,315.2,3.341,0.347,12.5,105.5214,13.41,14.5,29.5,0,110.4,13.31,14.21,277.2
"2009-05-05 01:00:30",858680,6.407,314.8,1.85,0.34,12.46,105.5215,13.41,14.48,29.19,0,110.4,13.31,14.21,276.8
"2009-05-05 01:01:00",858681,7.419,317.7,4.974,1.061,14.64,105.5239,13.41,14.59,29.38,0,110.4,13.28,14.21,279.7
"2009-05-05 01:01:30",858682,6.242,314.2,8.09,1.332,14.22,105.5265,13.42,14.61,29.51,0,110.4,13.27,14.22,276.2
"2009-05-05 01:02:00",858683,7.581,312.2,9.36,1.18,13.73,105.5283,13.42,14.46,29.4,0,110.4,13.27,14.22,274.2
"2009-05-05 01:02:30",858684,8.12,314,5.946,1.363,14.37,105.5334,13.44,14.67,29.74,0,110.4,13.27,14.24,276.0
"2009-05-05 01:03:00",858685,8.4,311,5.992,1.153,14.26,105.529,13.43,14.59,29.96,0,110.4,13.27,14.23,273.0
"2009-05-05 01:03:30",858686,8.8,307.1,1.74,0.419,12.6,105.5242,13.41,14.52,30.14,0,110.4,13.3,14.21,269.1
"2009-05-05 01:04:00",858687,7.886,297.5,3.721,0.252,12.58,105.5127,13.38,14.5,30.33,0,110.4,13.3,14.18,259.5
"2009-05-05 01:04:30",858688,8.48,306.6,8.52,1.405,14.78,105.5091,13.38,14.52,30.09,0,110.4,13.27,14.17,268.6
"2009-05-05 01:05:00",858689,7.582,303.7,1.946,0.154,12.56,105.5109,13.38,14.42,29.92,0,110.4,13.3,14.18,265.7
"2009-05-05 01:05:30",858690,7.908,310.6,3.715,0.241,13.09,105.5117,13.38,14.53,30,0,110.4,13.3,14.18,272.6
"2009-05-05 01:06:00",858691,7.638,313.3,10.03,1.323,14.36,105.5117,13.38,14.46,30.04,0,110.4,13.27,14.18,275.3
"2009-05-05 01:06:30",858692,6.53,306.1,4.094,0.817,13.29,105.5123,13.38,14.52,30,0,110.4,13.28,14.18,268.1
"2009-05-05 01:07:00",858693,7.182,311.1,7.129,1.241,14.01,105.5123,13.38,14.52,29.86,0,110.4,13.28,14.18,273.1
"2009-05-05 01:07:30",858694,9.09,317.2,7.455,1.202,16.5,105.5098,13.38,14.64,30.13,0,110.4,13.28,14.18,279.2
"2009-05-05 01:08:00",858695,7.702,312.6,5.248,0.757,13.76,105.5042,13.36,14.55,29.95,0,110.4,13.28,14.16,274.6
"2009-05-05 01:08:30",858696,8.38,314.2,4.624,0.977,13.11,105.5011,13.36,14.39,30.58,0,110.4,13.28,14.15,276.2
"2009-05-05 01:09:00",858697,7.748,310.9,6.353,1.5,13.53,105.4937,13.34,14.4,30.32,0,110.4,13.28,14.13,272.9
"2009-05-05 01:09:30",858698,7.939,316.1,8.14,1.252,14.93,105.4819,13.31,14.48,30.07,0,110.4,13.28,14.10,278.1
"2009-05-05 01:10:00",858699,8.03,315.9,4.406,1.252,13.38,105.4794,13.3,14.34,30.03,0,110.4,13.28,14.10,277.9
"2009-05-05 01:10:30",858700,7.676,317,3.746,0.834,13.87,105.4785,13.3,14.5,30.06,0,110.4,13.28,14.10,279.0
"2009-05-05 01:11:00",858701,7.348,310.4,5.041,1.089,13.56,105.4785,13.3,14.35,29.76,0,110.4,13.28,14.10,272.4
"2009-05-05 01:11:30",858702,6.187,314.5,2.629,0.484,12.65,105.4785,13.3,14.34,29.74,0,110.4,13.32,14.10,276.5
"2009-05-05 01:12:00",858703,9.27,319.4,6.506,1.486,15.65,105.4785,13.3,14.47,29.89,0,110.4,13.28,14.10,281.4
"2009-05-05 01:12:30",858704,10.32,323.9,7.336,1.378,15.86,105.4785,13.3,14.59,29.94,0,110.4,13.28,14.10,285.9
"2009-05-05 01:13:00",858705,8.57,320.4,8,1.684,14.64,105.4785,13.3,14.46,29.81,0,110.4,13.28,14.10,282.4
"2009-05-05 01:13:30",858706,7.415,308,9.28,1.426,13.31,105.4785,13.3,14.33,29.58,0,110.4,13.28,14.10,270.0
"2009-05-05 01:14:00",858707,8.4,310.1,3.477,0.793,13.4,105.4785,13.3,14.43,29.78,0,110.4,13.28,14.10,272.1
"2009-05-05 01:14:30",858708,10,315.7,7.232,1.279,15.3,105.4782,13.3,14.39,29.94,0,110.4,13.28,14.10,277.7
"2009-05-05 01:15:00",858709,8.23,308.2,6.052,1.379,13.87,105.4782,13.3,14.37,29.83,0,110.4,13.28,14.10,270.2
"2009-05-05 01:15:30",858710,8.67,310.9,5.173,1.282,14.57,105.4785,13.3,14.37,29.77,0,110.4,13.28,14.10,272.9
"2009-05-05 01:16:00",858711,7.361,309.3,3.742,0.268,12.45,105.4771,13.29,14.3,29.89,0,110.4,13.32,14.09,271.3
"2009-05-05 01:16:30",858712,7.464,308.6,4.914,0.768,12.73,105.4782,13.3,14.31,29.94,0,110.4,13.28,14.10,270.6
"2009-05-05 01:17:00",858713,7.776,307.6,6.355,1.278,14.6,105.4768,13.29,14.54,30.17,0,110.4,13.28,14.09,269.6
"2009-05-05 01:17:30",858714,8.36,303.4,7.96,1.014,14.32,105.4771,13.29,14.47,30.14,0,110.4,13.28,14.09,265.4
"2009-05-05 01:18:00",858715,8.17,306.9,5.045,1.303,14.1,105.4746,13.29,14.4,30.07,0,110.4,13.28,14.09,268.9
"2009-05-05 01:18:30",858716,8.28,310,8.04,1.461,14.58,105.4734,13.28,14.35,30.05,0,110.4,13.28,14.08,272.0
"2009-05-05 01:19:00",858717,7.926,311.4,4.751,1.028,13.29,105.4703,13.28,14.42,30.15,0,110.4,13.28,14.07,273.4
"2009-05-05 01:19:30",858718,10.15,320.5,5.595,1.129,16.3,105.4698,13.27,14.48,30.09,0,110.4,13.28,14.07,282.5
"2009-05-05 01:20:00",858719,9.19,310,4.86,0.776,13.48,105.4695,13.27,14.45,29.98,0,110.4,13.28,14.07,272.0
"2009-05-05 01:20:30",858720,7.381,298.6,5.062,1.066,12.79,105.4698,13.27,14.28,29.7,0,110.4,13.28,14.07,260.6
"2009-05-05 01:21:00",858721,7.016,298.1,3.972,0.336,12.63,105.4653,13.26,14.29,29.74,0,110.4,13.31,14.06,260.1
"2009-05-05 01:21:30",858722,7.253,299.9,6.874,1.157,14.59,105.4602,13.25,14.44,29.98,0,110.4,13.28,14.05,261.9
"2009-05-05 01:22:00",858723,8.05,315.5,8.09,1.328,14.87,105.4588,13.25,14.33,29.93,0,110.4,13.28,14.05,277.5
"2009-05-05 01:22:30",858724,6.519,309.8,6.633,1.084,14.25,105.4551,13.24,14.45,30.09,0,110.4,13.28,14.04,271.8
"2009-05-05 01:23:00",858725,7.223,309,6.84,1.027,13.94,105.4512,13.23,14.28,29.94,0,110.4,13.28,14.03,271.0
"2009-05-05 01:23:30",858726,7.362,305.6,4.564,0.308,12.82,105.4467,13.22,14.31,30.01,0,110.4,13.32,14.01,267.6
"2009-05-05 01:24:00",858727,8.88,320.6,5.52,1.219,16.1,105.4461,13.21,14.53,30.56,0,110.4,13.29,14.01,282.6
"2009-05-05 01:24:30",858728,8.79,315.4,7.404,1.31,15.61,105.4456,13.21,14.5,30.68,0,110.4,13.29,14.01,277.4
"2009-05-05 01:25:00",858729,7.703,307.3,3.39,0.417,12.5,105.4462,13.21,14.32,30.25,0,110.4,13.32,14.01,269.3
"2009-05-05 01:25:30",858730,7.803,304.6,4.169,0.531,12.4,105.4498,13.22,14.28,30.23,0,110.4,13.32,14.02,266.6
"2009-05-05 01:26:00",858731,9.87,317.7,6.987,1.493,14.56,105.4498,13.22,14.42,30.3,0,110.4,13.29,14.02,279.7
"2009-05-05 01:26:30",858732,10.03,319.2,7.344,1.226,14.79,105.4512,13.23,14.47,30.14,0,110.4,13.29,14.03,281.2
"2009-05-05 01:27:00",858733,9.7,318.1,6.093,1.49,15.37,105.4545,13.24,14.42,30.09,0,110.4,13.29,14.03,280.1
"2009-05-05 01:27:30",858734,8.72,308.5,3.148,0.673,13.02,105.4572,13.24,14.28,29.98,0,110.4,13.29,14.04,270.5
"2009-05-05 01:28:00",858735,9.47,316.5,5.177,1.213,15.2,105.4596,13.25,14.34,30.09,0,110.4,13.29,14.05,278.5
"2009-05-05 01:28:30",858736,9.71,314.3,6.759,1.32,15.41,105.4611,13.25,14.48,30.3,0,110.4,13.29,14.05,276.3
"2009-05-05 01:29:00",858737,8.94,312,6.922,1.186,14.34,105.4628,13.26,14.46,30.46,0,110.4,13.29,14.06,274.0
"2009-05-05 01:29:30",858738,8.31,303.8,6.574,0.865,13.27,105.4655,13.26,14.33,30.31,0,110.4,13.29,14.06,265.8
"2009-05-05 01:30:00",858739,8.14,302.5,6.669,1.163,13.5,105.4655,13.26,14.26,30.2,0,110.4,13.29,14.06,264.5
"2009-05-05 01:30:30",858740,8.59,309.2,7.127,1.286,14.55,105.4667,13.27,14.41,30.51,0,110.4,13.29,14.07,271.2
"2009-05-05 01:31:00",858741,8.22,308.6,1.939,0.246,12.65,105.4701,13.28,14.24,30.44,0,110.3,13.33,14.07,270.6
"2009-05-05 01:31:30",858742,8.52,313.3,6.255,1.212,15.09,105.4676,13.27,14.43,30.65,0,110.3,13.29,14.07,275.3
"2009-05-05 01:32:00",858743,7.319,308.5,1.564,0.434,13.05,105.4668,13.27,14.35,30.55,0,110.3,13.33,14.07,270.5
"2009-05-05 01:32:30",858744,7.376,309.1,3.203,0.685,13.13,105.4698,13.28,14.25,30.42,0,110.4,13.29,14.07,271.1
"2009-05-05 01:33:00",858745,9.36,318.4,7.163,1.233,16.55,105.4665,13.27,14.52,30.58,0,110.3,13.29,14.06,280.4
"2009-05-05 01:33:30",858746,8.75,319.9,7.246,1.398,15.05,105.4628,13.26,14.42,30.44,0,110.3,13.29,14.06,281.9
"2009-05-05 01:34:00",858747,7.936,305.8,2.966,0.241,12.4,105.4629,13.26,14.25,30.27,0,110.3,13.33,14.06,267.8
"2009-05-05 01:34:30",858748,8.45,310.2,8.26,1.317,14.22,105.4595,13.25,14.39,30.58,0,110.3,13.29,14.05,272.2
"2009-05-05 01:35:00",858749,8.15,305.9,3.333,0.87,12.72,105.4544,13.24,14.34,30.53,0,110.3,13.29,14.03,267.9
"2009-05-05 01:35:30",858750,7.808,304.4,2.422,0.18,12.64,105.4485,13.22,14.24,30.44,0,110.3,13.32,14.02,266.4
"2009-05-05 01:36:00",858751,7.805,307.2,4.142,0.22,13.05,105.4468,13.22,14.38,30.72,0,110.3,13.32,14.01,269.2
"2009-05-05 01:36:30",858752,9.24,307.4,11.21,1.184,15.04,105.4465,13.22,14.28,30.77,0,110.3,13.29,14.01,269.4
"2009-05-05 01:37:00",858753,9.12,305.6,7.126,1.089,14.27,105.4465,13.22,14.36,30.8,0,110.3,13.29,14.01,267.6
"2009-05-05 01:37:30",858754,9.81,307.3,7.796,1.339,15.7,105.4465,13.22,14.48,30.96,0,110.3,13.29,14.01,269.3
"2009-05-05 01:38:00",858755,9.63,304.4,6.792,1.196,14.44,105.4465,13.22,14.34,30.97,0,110.3,13.29,14.01,266.4
"2009-05-05 01:38:30",858756,9.48,302.4,6.445,1.196,13.8,105.4465,13.22,14.28,30.93,0,110.3,13.29,14.01,264.4
"2009-05-05 01:39:00",858757,9.07,299.3,4.109,0.94,12.87,105.4465,13.22,14.31,31.11,0,110.3,13.29,14.01,261.3
"2009-05-05 01:39:30",858758,9.77,301,6.503,1.306,14.3,105.4465,13.22,14.25,30.83,0,110.3,13.29,14.01,263.0
"2009-05-05 01:40:00",858759,8.84,296,0.823,0.183,12.74,105.4465,13.22,14.21,30.81,0,110.3,13.33,14.01,258.0
"2009-05-05 01:40:30",858760,9.9,300.7,6.999,1.259,15.43,105.4465,13.22,14.38,30.88,0,110.3,13.3,14.01,262.7
"2009-05-05 01:41:00",858761,9.55,296.2,5.385,1.241,14.7,105.4463,13.21,14.34,30.84,0,110.3,13.3,14.01,258.2
"2009-05-05 01:41:30",858762,10.33,300.7,7.359,1.317,16.35,105.444,13.21,14.48,31.04,0,110.3,13.3,14.01,262.7
"2009-05-05 01:42:00",858763,10.46,303.2,6.697,1.304,16.24,105.4418,13.2,14.38,30.96,0,110.3,13.3,14.00,265.2
"2009-05-05 01:42:30",858764,9.46,294.2,2.111,0.34,12.43,105.4398,13.2,14.2,30.82,0,110.3,13.3,14.00,256.2
"2009-05-05 01:43:00",858765,9.61,292.4,4.797,0.529,12.87,105.4381,13.19,14.32,30.93,0,110.3,13.3,13.99,254.4
"2009-05-05 01:43:30",858766,9.94,297.4,6.171,1.286,14.04,105.4367,13.19,14.23,30.89,0,110.3,13.3,13.99,259.4
"2009-05-05 01:44:00",858767,8.98,293.5,1.717,0.243,12.8,105.4378,13.19,14.25,30.81,0,110.3,13.33,13.99,255.5
"2009-05-05 01:44:30",858768,8.9,292.1,1.182,0.137,12.86,105.4378,13.19,14.18,30.71,0,110.3,13.33,13.99,254.1
"2009-05-05 01:45:00",858769,9.69,296.4,7.652,1.319,15.5,105.4375,13.19,14.37,30.88,0,110.3,13.3,13.99,258.4
"2009-05-05 01:45:30",858770,10.76,300,6.759,1.181,16.59,105.437,13.19,14.41,30.69,0,110.3,13.3,13.99,262.0
"2009-05-05 01:46:00",858771,10.13,303,6.709,1.21,16.45,105.4378,13.19,14.42,30.77,0,110.3,13.3,13.99,265.0
"2009-05-05 01:46:30",858772,11.32,297.4,7.478,1.287,16.08,105.4375,13.19,14.4,30.13,0,110.3,13.3,13.99,259.4
"2009-05-05 01:47:00",858773,9.36,290.1,1.721,0.456,12.32,105.442,13.2,14.19,29.77,0,110.3,13.33,14.00,252.1
"2009-05-05 01:47:30",858774,9.77,298.3,8.3,1.206,14.31,105.4451,13.21,14.32,29.53,0,110.3,13.3,14.01,260.3
"2009-05-05 01:48:00",858775,9.62,294.1,4.789,0.848,12.93,105.4465,13.22,14.28,29.69,0,110.3,13.3,14.01,256.1
"2009-05-05 01:48:30",858776,8.64,293.2,1.568,0.476,12.74,105.4465,13.22,14.19,29.83,0,110.3,13.34,14.01,255.2